Theta_e
295 288 285 288 290 289 287 285 285 287 289 287 287 288 291 293 293 292 293 295 295 296 298 305 311 315 315 317 317 314 312 310 308 304 302 302 302 303 303 304 306 307 307 309
291 285 291 293 292 290 288 285 283 287 289 287 286 286 290 292 292 293 293 294 295 296 297 302 308 311 313 314 316 313 312 308 307 305 305 304 304 303 304 304 305 306 307 308
287 291 293 292 290 288 287 285 284 284 287 288 285 283 286 290 292 293 293 295 295 296 296 296 296 298 303 312 314 313 310 308 306 306 303 303 302 302 302 302 302 305 307 307
289 293 290 290 289 290 285 290 289 287 284 279 284 276 284 288 289 291 292 292 294 294 296 296 296 299 302 310 314 312 309 307 306 303 301 300 299 298 301 301 303 303 306 306
288 289 289 287 289 291 287 291 288 287 284 282 282 278 283 287 286 290 292 293 293 294 295 295 298 301 305 309 311 309 307 306 304 302 302 300 299 300 301 302 301 302 304 306
291 292 291 290 291 291 291 288 288 287 285 275 282 281 281 286 288 289 290 293 294 294 295 297 300 303 306 309 309 307 305 304 303 303 302 300 298 299 299 300 300 301 303 304
288 288 290 292 287 289 288 285 277 276 274 275 283 280 284 289 291 290 290 293 295 296 297 297 299 302 307 307 307 306 305 303 303 302 301 299 298 300 300 300 300 300 302 302
281 278 287 290 288 285 284 285 279 272 274 278 279 278 284 291 291 291 293 294 295 296 298 298 300 302 305 306 306 305 304 302 302 301 300 298 299 300 301 300 300 301 302 302
282 282 291 289 291 289 284 281 287 279 274 277 280 283 289 291 291 291 291 291 294 296 298 300 302 303 304 305 304 303 303 302 302 300 298 298 299 299 300 300 301 301 302 303
290 282 286 289 291 291 287 289 279 279 272 273 278 281 285 287 289 291 290 290 293 297 299 300 302 303 304 305 304 303 303 302 300 299 297 298 298 300 300 301 301 301 301 301
291 288 282 287 284 284 284 283 285 285 282 277 274 281 292 293 294 291 291 292 293 297 299 300 302 303 304 304 303 302 302 300 298 297 297 297 298 299 300 300 301 301 301 302
292 288 279 282 287 290 288 286 286 280 276 279 280 283 291 292 292 293 292 292 292 297 300 301 303 303 303 303 302 301 301 299 298 297 297 297 298 298 299 299 300 301 301 302
292 286 280 279 284 287 283 287 288 288 284 279 278 281 293 292 292 292 292 291 292 295 298 301 302 302 303 302 302 301 300 298 297 297 297 297 297 297 298 299 300 300 301 302
296 287 285 279 282 285 280 283 287 286 279 282 283 284 287 289 290 291 291 292 292 293 295 298 301 302 302 303 302 301 299 298 297 296 296 296 296 297 298 299 299 300 300 301
291 284 286 286 287 287 284 282 283 282 285 281 285 284 289 291 291 292 293 292 291 290 291 295 296 299 301 301 302 301 300 298 298 296 296 296 297 297 298 298 299 299 299 300
291 282 284 282 286 285 284 285 284 284 285 285 286 285 292 294 294 292 293 291 291 290 291 292 295 296 298 298 301 301 299 298 298 296 295 296 297 296 297 297 298 298 299 299
286 284 283 279 284 283 279 284 285 284 287 287 283 288 292 292 295 294 293 292 292 291 292 293 295 295 297 298 300 299 298 298 297 296 295 296 296 296 296 297 297 297 297 299
282 283 283 279 282 274 284 291 290 288 288 290 290 292 294 294 295 296 296 293 292 292 292 293 294 296 296 297 296 297 297 297 296 295 295 295 295 294 295 295 295 296 297 298
286 281 278 275 276 281 283 287 287 286 287 291 290 292 293 294 294 293 297 296 294 293 294 293 294 295 295 295 296 297 295 295 295 295 295 294 294 293 293 294 294 295 296 297
284 284 278 275 272 271 283 289 293 292 282 293 292 292 292 293 288 293 295 295 295 294 293 293 293 293 293 293 294 294 293 293 293 294 294 294 293 294 294 293 294 294 296 295
277 278 275 274 273 278 286 289 292 280 283 293 295 295 294 291 294 295 296 295 295 294 292 292 292 292 291 291 291 289 289 290 290 290 290 291 293 293 294 294 293 293 292 291
275 275 274 276 274 271 287 289 283 287 293 294 294 296 295 294 297 296 294 293 293 291 291 290 289 289 289 289 290 288 288 287 288 288 288 289 290 291 292 290 289 289 289 289
275 279 277 279 279 285 287 288 292 291 289 290 290 292 296 297 297 297 293 293 292 290 289 288 287 285 284 285 288 287 285 286 287 287 286 286 286 287 287 288 288 288 288 287
282 284 281 281 282 283 287 288 289 292 292 291 291 291 292 293 296 297 292 291 290 288 287 286 285 284 284 283 284 285 286 286 287 286 286 286 286 287 287 287 288 288 288 287
282 283 280 281 283 285 286 288 290 290 291 290 291 291 291 291 293 292 290 289 288 286 284 285 285 284 284 284 285 286 286 287 286 286 286 286 287 287 287 286 287 287 286 288
281 279 278 278 283 285 286 289 290 289 287 290 289 289 289 290 291 288 287 287 286 284 284 283 283 284 284 284 284 285 286 287 286 285 285 286 286 286 286 286 286 289 289 290
Wind_Speed
6 6 12 14 14 8 5 7 7 3 4 1 8 13 12 9 8 9 8 8 8 9 9 9 9 10 10 9 12 12 11 8 7 4 4 3 3 3 2 3 3 2 3 2
5 16 10 11 13 11 9 7 7 8 4 2 9 14 14 10 10 11 10 10 10 8 9 9 9 10 10 10 13 14 12 11 7 5 3 3 4 3 3 3 2 2 2 2
13 0 19 15 11 12 11 11 6 6 1 7 8 11 11 11 18 13 10 10 9 12 12 11 10 9 9 11 14 14 13 12 8 7 5 4 5 4 3 2 2 2 2 2
14 17 4 15 13 10 10 9 9 5 2 4 5 8 7 7 5 6 9 9 10 9 11 15 12 9 8 9 12 13 13 12 8 9 7 7 4 4 4 4 3 3 3 2
8 7 16 10 10 8 3 2 7 5 3 5 5 4 8 8 4 8 11 12 10 9 8 10 14 11 9 8 10 11 12 10 8 8 7 6 5 4 4 3 6 4 3 2
12 3 9 6 7 12 8 6 7 5 1 4 9 9 6 7 9 8 5 8 9 9 9 8 8 10 8 8 10 11 12 10 9 8 8 8 8 7 5 4 4 4 3 3
11 9 2 4 6 4 7 7 2 2 0 8 3 6 12 9 10 4 3 6 9 9 9 9 10 10 10 12 11 12 12 11 9 9 8 8 8 8 7 6 5 5 3 2
13 7 15 7 8 11 12 10 7 8 6 4 3 11 8 14 5 3 6 6 8 8 6 8 9 8 9 11 11 12 12 11 9 8 8 7 7 5 4 5 4 4 4 4
11 9 18 18 9 14 7 10 3 4 0 2 7 6 9 8 11 6 6 5 9 9 8 9 9 8 10 10 11 12 11 11 9 8 7 7 7 6 5 6 5 3 4 4
4 3 5 12 12 11 9 10 5 2 5 5 4 7 11 1 8 8 8 11 9 11 11 10 10 9 9 10 8 9 9 11 9 9 7 7 7 6 6 6 6 6 5 4
6 3 2 6 14 17 6 8 7 7 6 7 1 9 11 16 10 5 9 9 9 9 10 11 9 10 9 8 9 8 8 10 9 8 7 8 7 6 6 6 6 6 6 6
24 3 5 18 1 10 20 15 18 8 5 4 3 11 3 6 7 7 5 8 8 10 9 10 11 13 13 12 9 8 8 9 8 8 8 8 7 7 7 6 6 6 6 5
19 9 8 3 5 9 11 19 19 11 4 8 8 7 5 8 7 6 5 7 7 8 9 10 11 11 12 11 10 8 8 9 9 8 9 8 8 7 7 7 7 6 6 6
14 15 25 20 23 11 10 10 20 18 5 15 18 15 1 5 6 7 6 7 9 9 9 8 10 12 12 13 13 12 10 9 9 8 9 8 8 7 7 7 7 7 6 6
6 13 22 22 18 7 19 17 17 21 28 16 29 19 16 7 7 7 8 7 7 7 9 9 9 9 12 12 12 12 11 11 10 10 9 8 7 7 7 7 7 6 6 6
16 7 7 16 22 17 18 17 22 25 27 22 27 24 5 9 7 6 8 9 8 10 10 9 9 10 11 12 14 13 11 11 11 11 9 9 8 8 7 7 7 7 6 6
9 6 8 19 22 19 20 24 19 23 26 25 20 35 6 8 10 8 10 13 13 11 13 13 14 12 10 11 12 13 12 12 12 10 8 9 9 8 8 7 7 7 6 6
9 10 9 16 11 27 17 24 24 20 21 23 26 30 19 14 6 10 9 11 12 12 14 14 12 9 7 8 8 8 11 12 11 10 10 8 9 8 8 8 7 6 6 6
9 8 7 8 17 14 6 12 24 25 29 21 22 28 28 12 3 13 14 10 10 13 15 14 13 12 10 11 10 12 10 10 10 10 10 9 10 9 8 8 7 5 5 5
17 15 13 14 11 16 12 14 14 20 23 21 20 26 26 14 13 26 9 8 10 11 11 13 15 13 13 10 10 12 11 11 11 10 10 9 9 10 9 8 7 5 5 5
17 17 21 19 15 13 17 10 12 20 13 23 27 30 29 14 21 10 10 12 9 9 11 10 13 15 15 14 13 12 10 11 8 8 8 8 8 9 9 8 4 6 5 6
19 17 17 18 22 30 4 4 6 8 13 16 17 26 28 11 19 14 5 8 11 14 12 11 11 9 11 14 14 12 10 7 8 8 8 8 7 6 7 8 5 6 6 6
28 18 11 12 6 2 5 5 4 5 5 7 13 13 11 21 20 17 11 14 14 16 14 11 14 13 7 6 12 14 9 10 11 10 8 6 7 6 7 8 7 5 6 6
9 12 8 3 5 6 8 4 4 2 5 5 9 12 11 13 12 17 10 13 14 14 14 11 14 13 13 8 7 12 12 11 12 12 9 8 9 9 7 5 5 5 4 4
9 4 9 7 6 2 7 6 3 6 3 4 10 9 10 11 11 5 9 13 13 13 11 13 14 13 13 12 14 13 14 13 13 12 9 9 7 9 7 5 4 5 3 4
5 7 6 6 9 7 6 9 8 7 5 3 9 11 8 9 10 5 6 8 13 14 13 12 13 15 13 15 15 14 12 12 14 13 8 7 8 7 6 7 6 9 8 10
Wind_Direction
208 207 206 205 214 255 358 324 290 249 100 182 235 256 261 255 267 269 248 215 233 202 189 164 161 155 151 153 149 152 150 152 133 126 124 121 155 139 114 97 109 101 70 4
173 233 217 219 220 237 265 272 275 301 123 103 274 268 269 247 237 222 225 231 222 197 158 159 156 156 158 159 158 156 158 150 146 144 151 153 142 148 140 131 158 91 131 46
210 124 203 226 221 218 224 239 240 246 334 231 266 275 239 250 237 239 237 226 215 200 168 158 160 167 165 170 162 161 154 153 151 148 121 89 72 68 83 153 158 166 138 144
235 233 227 211 227 201 237 210 230 263 344 244 49 286 314 303 182 196 231 221 218 210 172 165 160 171 180 168 156 152 146 153 153 135 135 150 145 145 178 174 169 144 152 119
205 193 205 223 207 180 219 117 186 206 230 328 205 252 257 239 246 237 230 215 208 200 173 167 168 165 170 160 146 142 142 151 147 149 155 161 145 131 131 135 133 149 154 144
207 8 180 194 179 194 135 105 72 65 111 267 193 186 231 209 218 231 244 222 179 176 162 144 144 146 152 140 141 143 151 154 148 159 161 157 141 137 138 153 155 162 159 167
201 194 185 192 112 141 178 150 61 0 312 230 280 203 247 302 283 243 222 198 160 144 148 150 154 161 155 151 151 148 158 159 155 157 150 150 149 149 160 166 169 158 152 156
187 199 173 183 181 175 194 180 154 190 198 231 326 231 259 221 249 193 163 117 140 146 160 156 156 160 153 153 152 155 160 155 156 151 151 149 150 148 162 170 162 161 160 154
184 238 182 176 181 141 185 224 212 70 105 22 218 265 285 233 252 228 186 180 167 160 160 157 157 161 155 161 161 161 159 156 156 151 145 148 149 157 152 155 133 135 118 125
195 141 193 170 199 209 156 150 137 260 181 235 268 267 235 175 228 234 197 193 185 166 161 161 165 160 161 157 154 159 157 159 149 145 144 148 153 154 142 135 144 145 140 137
201 172 203 146 209 183 138 199 199 155 200 184 216 255 203 223 230 236 223 174 173 169 164 162 157 149 156 152 155 160 151 147 149 148 147 146 151 154 143 147 156 153 147 161
212 222 161 202 267 208 210 207 191 175 217 236 162 248 106 111 145 135 129 174 172 164 162 163 161 156 159 158 159 159 151 148 153 151 141 146 146 153 153 159 156 152 156 156
193 212 203 121 324 245 222 221 214 235 75 210 185 260 213 136 120 124 143 150 149 155 159 162 159 163 160 156 160 159 159 156 155 148 147 151 155 155 163 166 151 150 159 157
215 211 217 218 219 135 191 203 225 211 216 218 220 226 175 160 182 154 158 159 161 165 171 169 170 173 170 168 167 167 163 152 154 151 151 155 158 160 164 162 152 158 161 159
194 218 213 231 251 212 198 191 213 220 222 211 237 236 224 205 203 192 193 174 161 172 184 179 175 174 173 171 170 166 165 157 158 157 155 162 157 155 160 153 153 158 162 169
218 229 241 240 240 237 243 212 206 210 227 227 242 261 163 218 245 179 182 171 185 195 189 193 177 172 184 176 169 166 165 158 158 160 163 153 154 155 156 153 153 157 163 169
265 251 231 242 232 231 235 230 211 230 232 213 228 241 271 229 217 214 213 189 194 200 193 190 190 181 173 180 170 168 160 153 160 156 154 156 157 155 154 151 154 159 169 166
272 266 245 255 238 228 219 223 219 217 238 228 236 245 236 242 254 223 228 185 198 186 185 194 185 171 170 161 153 142 147 154 156 155 158 151 151 152 152 153 159 161 165 170
247 249 268 259 242 268 218 206 201 205 226 227 236 251 250 240 272 251 216 192 187 185 192 193 180 163 158 161 156 148 143 152 153 157 159 155 153 153 153 157 159 159 151 166
234 230 235 257 243 274 208 226 204 212 238 216 223 243 246 232 234 250 159 180 205 185 168 167 166 152 151 161 146 151 153 155 167 160 158 154 147 151 156 157 162 154 149 150
216 227 231 239 247 249 261 292 271 220 224 218 223 235 242 213 227 259 182 196 180 153 149 142 154 157 156 150 145 151 152 168 154 141 138 141 144 149 151 146 137 136 127 123
228 217 225 228 239 241 221 319 287 307 254 246 221 237 247 197 238 230 184 155 150 146 143 147 144 146 154 152 149 147 159 137 131 128 129 134 138 137 136 133 124 125 129 126
224 216 199 190 203 277 173 206 135 301 291 354 351 337 281 222 227 207 186 173 169 158 157 151 149 139 134 144 149 139 144 133 125 120 120 118 110 112 116 126 128 125 128 142
250 202 197 129 181 214 224 240 243 144 312 5 320 307 309 302 285 228 160 156 156 155 156 146 145 147 143 130 113 129 141 132 127 123 126 134 120 112 102 107 122 128 134 133
192 201 167 196 180 155 282 238 218 301 155 309 295 295 291 294 300 204 155 160 158 152 143 152 151 148 143 133 132 141 139 136 124 128 133 113 127 108 110 92 112 114 86 134
191 187 173 201 189 162 184 192 202 233 268 243 285 300 281 275 260 160 148 158 150 148 148 144 138 137 138 138 137 133 133 134 143 122 119 134 117 111 114 113 100 87 107 105